Time,TemperatureF,DewpointF,PressureIn,WindDirection,WindDirectionDegrees,WindSpeedMPH,WindSpeedGustMPH,Humidity,HourlyPrecipIn,Conditions,Clouds,dailyrainin,SoftwareType,DateUTC
2013-05-19 00:01:00,54.4,48.4,30.22,SE,134,0.0,0.0,80,0.00,,OVC100,0.00,VWS V14.00,2013-05-19 04:01:00,
2013-05-19 00:06:00,54.5,48.8,30.22,SE,125,1.0,2.0,81,0.00,,OVC100,0.00,VWS V14.00,2013-05-19 04:06:00,
2013-05-19 00:11:00,54.5,48.8,30.22,SE,125,1.0,1.0,81,0.00,,OVC100,0.00,VWS V14.00,2013-05-19 04:11:00,
2013-05-19 00:16:00,54.5,49.1,30.22,SE,125,0.0,0.0,82,0.00,,OVC100,0.00,VWS V14.00,2013-05-19 04:16:00,
2013-05-19 00:21:00,54.5,49.1,30.22,South,190,0.0,0.0,82,0.00,,OVC100,0.00,VWS V14.00,2013-05-19 04:21:00,
2013-05-19 00:26:00,54.7,49.7,30.22,ESE,110,0.0,1.0,83,0.00,,OVC100,0.00,VWS V14.00,2013-05-19 04:26:00,
2013-05-19 00:31:00,54.7,49.7,30.22,ESE,110,1.0,1.0,83,0.00,,OVC100,0.00,VWS V14.00,2013-05-19 04:31:00,
2013-05-19 00:36:00,54.7,49.7,30.22,SW,225,0.0,1.0,83,0.00,,OVC100,0.00,VWS V14.00,2013-05-19 04:36:00,
2013-05-19 00:41:00,54.5,49.8,30.22,ESE,123,0.0,2.0,84,0.00,,OVC100,0.00,VWS V14.00,2013-05-19 04:41:00,
2013-05-19 00:46:00,54.5,49.8,30.22,SSE,155,0.0,1.0,84,0.00,,OVC100,0.00,VWS V14.00,2013-05-19 04:46:00,
2013-05-19 00:51:00,54.5,49.8,30.22,SSE,155,0.0,1.0,84,0.00,,OVC100,0.00,VWS V14.00,2013-05-19 04:51:00,
2013-05-19 00:56:00,54.5,49.8,30.22,SSE,155,2.0,2.0,84,0.00,,OVC100,0.00,VWS V14.00,2013-05-19 04:56:00,
2013-05-19 01:01:00,54.5,49.8,30.22,SSE,155,0.0,0.0,84,0.00,,OVC100,0.00,VWS V14.00,2013-05-19 05:01:00,
2013-05-19 01:06:00,54.5,50.1,30.22,SE,146,0.0,1.0,85,0.00,,OVC100,0.00,VWS V14.00,2013-05-19 05:06:00,
2013-05-19 01:11:00,54.5,50.1,30.22,ESE,115,0.0,1.0,85,0.00,,OVC100,0.00,VWS V14.00,2013-05-19 05:11:00,
2013-05-19 01:16:00,54.5,50.1,30.22,ESE,119,2.0,3.0,85,0.00,,OVC100,0.00,VWS V14.00,2013-05-19 05:16:00,
2013-05-19 01:21:00,54.5,50.1,30.22,ESE,121,0.0,0.0,85,0.00,,OVC100,0.00,VWS V14.00,2013-05-19 05:21:00,
2013-05-19 01:26:00,54.5,50.1,30.22,South,186,0.0,3.0,85,0.00,,OVC100,0.00,VWS V14.00,2013-05-19 05:26:00,
2013-05-19 01:31:00,54.5,50.1,30.21,South,186,0.0,0.0,85,0.00,,OVC100,0.00,VWS V14.00,2013-05-19 05:31:00,
2013-05-19 01:36:00,54.5,50.4,30.21,South,186,0.0,0.0,86,0.00,,OVC100,0.00,VWS V14.00,2013-05-19 05:36:00,
2013-05-19 01:41:00,54.5,50.4,30.21,South,188,0.0,0.0,86,0.00,,OVC100,0.00,VWS V14.00,2013-05-19 05:41:00,
2013-05-19 01:46:00,54.4,50.3,30.21,South,188,0.0,0.0,86,0.00,,OVC100,0.00,VWS V14.00,2013-05-19 05:46:00,
2013-05-19 01:51:00,54.4,50.3,30.21,South,188,0.0,0.0,86,0.00,,OVC100,0.00,VWS V14.00,2013-05-19 05:51:00,
2013-05-19 01:56:00,54.4,50.3,30.21,South,188,0.0,0.0,86,0.00,,OVC100,0.00,VWS V14.00,2013-05-19 05:56:00,
2013-05-19 02:01:00,54.2,50.1,30.21,South,188,0.0,0.0,86,0.00,,OVC100,0.00,VWS V14.00,2013-05-19 06:01:00,
2013-05-19 02:06:00,54.2,50.1,30.21,South,188,0.0,0.0,86,0.00,,OVC100,0.00,VWS V14.00,2013-05-19 06:06:00,
2013-05-19 02:11:00,54.1,50.0,30.21,South,188,0.0,0.0,86,0.00,,OVC100,0.00,VWS V14.00,2013-05-19 06:11:00,
2013-05-19 02:16:00,54.1,50.0,30.21,South,188,0.0,0.0,86,0.00,,OVC100,0.00,VWS V14.00,2013-05-19 06:16:00,
2013-05-19 02:21:00,53.9,49.8,30.21,South,188,0.0,0.0,86,0.00,,OVC100,0.00,VWS V14.00,2013-05-19 06:21:00,
2013-05-19 02:26:00,53.9,49.8,30.21,South,188,0.0,0.0,86,0.00,,OVC100,0.00,VWS V14.00,2013-05-19 06:26:00,
2013-05-19 02:31:00,53.9,49.8,30.21,South,188,0.0,0.0,86,0.00,,OVC100,0.00,VWS V14.00,2013-05-19 06:31:00,
2013-05-19 02:36:00,53.8,49.7,30.21,South,188,0.0,0.0,86,0.00,,OVC100,0.00,VWS V14.00,2013-05-19 06:36:00,
2013-05-19 02:41:00,53.8,49.7,30.21,South,188,0.0,0.0,86,0.00,,OVC100,0.00,VWS V14.00,2013-05-19 06:41:00,
2013-05-19 02:46:00,53.6,49.5,30.21,South,188,0.0,0.0,86,0.00,,OVC100,0.00,VWS V14.00,2013-05-19 06:46:00,
2013-05-19 02:51:00,53.6,49.5,30.21,South,188,0.0,0.0,86,0.00,,OVC095,0.00,VWS V14.00,2013-05-19 06:51:00,
2013-05-19 02:56:00,53.6,49.5,30.21,South,188,0.0,0.0,86,0.00,,OVC095,0.00,VWS V14.00,2013-05-19 06:56:00,
2013-05-19 03:01:00,53.6,49.8,30.21,ESE,108,0.0,1.0,87,0.00,,OVC095,0.00,VWS V14.00,2013-05-19 07:01:00,
2013-05-19 03:06:00,53.6,49.8,30.21,ESE,111,0.0,0.0,87,0.00,,OVC095,0.00,VWS V14.00,2013-05-19 07:06:00,
2013-05-19 03:11:00,53.6,49.8,30.21,SE,138,0.0,0.0,87,0.00,,OVC095,0.00,VWS V14.00,2013-05-19 07:11:00,
2013-05-19 03:16:00,53.6,49.8,30.21,SE,130,0.0,0.0,87,0.00,,OVC095,0.00,VWS V14.00,2013-05-19 07:16:00,
2013-05-19 03:21:00,53.5,49.7,30.21,SE,130,0.0,0.0,87,0.00,,OVC095,0.00,VWS V14.00,2013-05-19 07:21:00,
2013-05-19 03:26:00,53.5,49.7,30.21,SE,130,0.0,0.0,87,0.00,,OVC095,0.00,VWS V14.00,2013-05-19 07:26:00,
2013-05-19 03:31:00,53.5,49.7,30.21,SE,130,0.0,0.0,87,0.00,,OVC095,0.00,VWS V14.00,2013-05-19 07:31:00,
2013-05-19 03:36:00,53.3,49.5,30.21,SE,130,0.0,2.0,87,0.00,,OVC095,0.00,VWS V14.00,2013-05-19 07:36:00,
2013-05-19 03:41:00,53.3,49.5,30.21,SE,130,0.0,0.0,87,0.00,,OVC095,0.00,VWS V14.00,2013-05-19 07:41:00,
2013-05-19 03:46:00,53.3,49.2,30.21,SE,138,1.0,1.0,86,0.00,,OVC095,0.00,VWS V14.00,2013-05-19 07:46:00,
2013-05-19 03:51:00,53.3,49.2,30.21,ENE,74,0.0,0.0,86,0.00,,OVC095,0.00,VWS V14.00,2013-05-19 07:51:00,
2013-05-19 03:56:00,53.2,49.1,30.21,SE,134,0.0,2.0,86,0.00,,OVC095,0.00,VWS V14.00,2013-05-19 07:56:00,
2013-05-19 04:01:00,53.3,49.2,30.21,SSE,153,0.0,1.0,86,0.00,,OVC095,0.00,VWS V14.00,2013-05-19 08:01:00,
2013-05-19 04:06:00,53.3,49.2,30.21,ENE,70,3.0,3.0,86,0.00,,OVC095,0.00,VWS V14.00,2013-05-19 08:06:00,
2013-05-19 04:11:00,53.3,48.9,30.21,SSE,157,1.0,2.0,85,0.00,,OVC095,0.00,VWS V14.00,2013-05-19 08:11:00,
2013-05-19 04:16:00,53.3,48.9,30.21,SE,139,0.0,6.0,85,0.00,,OVC095,0.00,VWS V14.00,2013-05-19 08:16:00,
2013-05-19 04:21:00,53.3,48.9,30.21,SE,134,1.0,3.0,85,0.00,,OVC095,0.00,VWS V14.00,2013-05-19 08:21:00,
2013-05-19 04:26:00,53.3,48.9,30.21,SE,134,0.0,0.0,85,0.00,,OVC095,0.00,VWS V14.00,2013-05-19 08:26:00,
2013-05-19 04:31:00,53.5,48.8,30.22,SW,227,0.0,1.0,84,0.00,,OVC095,0.00,VWS V14.00,2013-05-19 08:31:00,
2013-05-19 04:36:00,53.5,48.8,30.22,East,84,0.0,1.0,84,0.00,,OVC095,0.00,VWS V14.00,2013-05-19 08:36:00,
2013-05-19 04:41:00,53.5,48.5,30.22,ENE,73,0.0,0.0,83,0.00,,OVC095,0.00,VWS V14.00,2013-05-19 08:41:00,
2013-05-19 04:46:00,53.5,48.5,30.22,SW,226,0.0,0.0,83,0.00,,OVC095,0.00,VWS V14.00,2013-05-19 08:46:00,
2013-05-19 04:51:00,53.5,48.5,30.22,East,80,0.0,0.0,83,0.00,,OVC023,0.00,VWS V14.00,2013-05-19 08:51:00,
2013-05-19 04:56:00,53.5,48.5,30.22,East,88,1.0,2.0,83,0.00,,OVC023,0.00,VWS V14.00,2013-05-19 08:56:00,
2013-05-19 05:01:00,53.5,48.5,30.22,SSE,155,0.0,1.0,83,0.00,,OVC023,0.00,VWS V14.00,2013-05-19 09:01:00,
2013-05-19 05:06:00,53.6,48.2,30.22,SSE,168,0.0,2.0,82,0.00,,OVC070,0.00,VWS V14.00,2013-05-19 09:06:00,
2013-05-19 05:11:00,53.6,48.2,30.22,SSE,160,0.0,1.0,82,0.00,,OVC070,0.00,VWS V14.00,2013-05-19 09:11:00,
2013-05-19 05:16:00,53.8,48.4,30.22,SE,143,2.0,2.0,82,0.00,,OVC070,0.00,VWS V14.00,2013-05-19 09:16:00,
2013-05-19 05:21:00,53.8,48.4,30.22,SE,126,0.0,4.0,82,0.00,,OVC070,0.00,VWS V14.00,2013-05-19 09:21:00,
2013-05-19 05:26:00,53.9,48.5,30.22,SSE,165,0.0,1.0,82,0.00,,OVC070,0.00,VWS V14.00,2013-05-19 09:26:00,
2013-05-19 05:31:00,54.1,48.7,30.22,SW,221,1.0,2.0,82,0.00,,OVC070,0.00,VWS V14.00,2013-05-19 09:31:00,
2013-05-19 05:36:00,54.1,48.7,30.22,South,185,1.0,3.0,82,0.00,,OVC070,0.00,VWS V14.00,2013-05-19 09:36:00,
2013-05-19 05:41:00,54.1,48.7,30.22,ESE,109,0.0,3.0,82,0.00,,OVC070,0.00,VWS V14.00,2013-05-19 09:41:00,
2013-05-19 05:46:00,54.2,48.8,30.23,ENE,58,1.0,2.0,82,0.00,,OVC070,0.00,VWS V14.00,2013-05-19 09:46:00,
2013-05-19 05:51:00,54.2,49.2,30.23,SSE,149,1.0,3.0,83,0.00,,OVC070,0.00,VWS V14.00,2013-05-19 09:51:00,
2013-05-19 05:56:00,54.2,49.2,30.23,SSW,202,1.0,4.0,83,0.00,,OVC070,0.00,VWS V14.00,2013-05-19 09:56:00,
2013-05-19 06:01:00,54.2,49.2,30.23,SE,133,2.0,3.0,83,0.00,,OVC070,0.00,VWS V14.00,2013-05-19 10:01:00,
2013-05-19 06:06:00,54.2,49.5,30.23,SE,135,2.0,2.0,84,0.01,,OVC070,0.01,VWS V14.00,2013-05-19 10:06:00,
2013-05-19 06:11:00,54.2,49.5,30.23,East,85,1.0,1.0,84,0.01,,OVC070,0.01,VWS V14.00,2013-05-19 10:11:00,
2013-05-19 06:16:00,54.1,49.7,30.23,ESE,119,0.0,0.0,85,0.01,,OVC070,0.01,VWS V14.00,2013-05-19 10:16:00,
2013-05-19 06:21:00,54.1,49.7,30.23,ESE,123,2.0,2.0,85,0.01,,OVC070,0.01,VWS V14.00,2013-05-19 10:21:00,
2013-05-19 06:26:00,54.1,50.0,30.23,ESE,123,0.0,2.0,86,0.01,,OVC070,0.01,VWS V14.00,2013-05-19 10:26:00,
2013-05-19 06:31:00,54.1,50.0,30.23,SSE,151,0.0,0.0,86,0.01,,OVC070,0.01,VWS V14.00,2013-05-19 10:31:00,
2013-05-19 06:36:00,54.1,50.0,30.23,East,89,1.0,1.0,86,0.01,,OVC070,0.01,VWS V14.00,2013-05-19 10:36:00,
2013-05-19 06:41:00,54.1,50.3,30.23,SSE,153,0.0,1.0,87,0.01,,OVC070,0.01,VWS V14.00,2013-05-19 10:41:00,
2013-05-19 06:46:00,54.1,50.3,30.23,SE,140,1.0,4.0,87,0.01,,OVC070,0.01,VWS V14.00,2013-05-19 10:46:00,
2013-05-19 06:51:00,54.1,50.6,30.23,East,87,0.0,0.0,88,0.01,,-RA,0.01,VWS V14.00,2013-05-19 10:51:00,
2013-05-19 06:56:00,54.1,50.6,30.23,ENE,70,0.0,0.0,88,0.01,,-RA,0.01,VWS V14.00,2013-05-19 10:56:00,
2013-05-19 07:01:00,54.1,50.6,30.24,SSE,159,0.0,3.0,88,0.01,,-RA,0.01,VWS V14.00,2013-05-19 11:01:00,
2013-05-19 07:06:00,54.1,50.6,30.24,SE,136,1.0,1.0,88,0.01,,RA,0.01,VWS V14.00,2013-05-19 11:06:00,
2013-05-19 07:11:00,54.1,50.9,30.24,ESE,113,0.0,1.0,89,0.01,,RA,0.01,VWS V14.00,2013-05-19 11:11:00,
2013-05-19 07:16:00,54.1,50.9,30.24,SSE,149,1.0,2.0,89,0.01,,RA,0.01,VWS V14.00,2013-05-19 11:16:00,
2013-05-19 07:21:00,54.1,50.9,30.24,South,176,0.0,2.0,89,0.00,,RA,0.01,VWS V14.00,2013-05-19 11:21:00,
2013-05-19 07:26:00,54.1,50.9,30.24,East,82,0.0,4.0,89,0.00,,RA,0.01,VWS V14.00,2013-05-19 11:26:00,
2013-05-19 07:31:00,54.1,50.9,30.24,East,85,0.0,3.0,89,0.00,,RA,0.01,VWS V14.00,2013-05-19 11:31:00,
2013-05-19 07:36:00,54.2,51.3,30.24,ENE,67,1.0,2.0,90,0.00,,RA,0.01,VWS V14.00,2013-05-19 11:36:00,
2013-05-19 07:41:00,54.2,51.3,30.24,East,101,0.0,2.0,90,0.00,,RA,0.01,VWS V14.00,2013-05-19 11:41:00,
2013-05-19 07:46:00,54.4,51.5,30.24,ESE,112,0.0,2.0,90,0.00,,RA,0.01,VWS V14.00,2013-05-19 11:46:00,
2013-05-19 07:51:00,54.5,51.6,30.24,East,84,0.0,4.0,90,0.00,,RA,0.01,VWS V14.00,2013-05-19 11:51:00,
2013-05-19 07:56:00,54.7,51.8,30.24,East,93,0.0,3.0,90,0.00,,RA,0.01,VWS V14.00,2013-05-19 11:56:00,
2013-05-19 08:01:00,54.7,51.8,30.25,East,88,0.0,2.0,90,0.00,,RA,0.01,VWS V14.00,2013-05-19 12:01:00,
2013-05-19 08:06:00,54.8,52.2,30.25,ENE,61,3.0,3.0,91,0.01,,RA,0.02,VWS V14.00,2013-05-19 12:06:00,
2013-05-19 08:11:00,54.8,52.2,30.25,ESE,115,0.0,1.0,91,0.01,,RA,0.02,VWS V14.00,2013-05-19 12:11:00,
2013-05-19 08:16:00,54.8,52.2,30.25,ESE,114,0.0,1.0,91,0.01,,RA,0.02,VWS V14.00,2013-05-19 12:16:00,
2013-05-19 08:21:00,54.8,52.2,30.25,SSE,147,0.0,2.0,91,0.01,,RA,0.02,VWS V14.00,2013-05-19 12:21:00,
2013-05-19 08:26:00,54.8,52.2,30.25,SE,144,2.0,2.0,91,0.01,,RA,0.02,VWS V14.00,2013-05-19 12:26:00,
2013-05-19 08:31:00,54.8,52.2,30.25,SE,140,1.0,3.0,91,0.01,,RA,0.02,VWS V14.00,2013-05-19 12:31:00,
2013-05-19 08:36:00,55.0,52.4,30.25,ESE,116,0.0,4.0,91,0.02,,RA,0.03,VWS V14.00,2013-05-19 12:36:00,
2013-05-19 08:41:00,55.1,52.5,30.25,SSE,163,0.0,1.0,91,0.02,,RA,0.03,VWS V14.00,2013-05-19 12:41:00,
2013-05-19 08:46:00,55.1,52.5,30.25,SE,142,0.0,4.0,91,0.02,,RA,0.03,VWS V14.00,2013-05-19 12:46:00,
2013-05-19 08:51:00,55.1,52.8,30.25,ESE,114,0.0,2.0,92,0.02,,RA,0.03,VWS V14.00,2013-05-19 12:51:00,
2013-05-19 08:56:00,55.1,52.8,30.25,ESE,120,2.0,3.0,92,0.02,,RA,0.03,VWS V14.00,2013-05-19 12:56:00,
2013-05-19 09:01:00,55.1,52.8,30.27,East,98,0.0,4.0,92,0.03,,RA,0.04,VWS V14.00,2013-05-19 13:01:00,
2013-05-19 09:06:00,55.1,52.8,30.27,SE,127,0.0,1.0,92,0.03,,-RA,0.04,VWS V14.00,2013-05-19 13:06:00,
2013-05-19 09:11:00,55.3,53.0,30.27,ESE,112,0.0,1.0,92,0.04,,-RA,0.05,VWS V14.00,2013-05-19 13:11:00,
2013-05-19 09:16:00,55.3,53.0,30.27,ESE,106,2.0,2.0,92,0.05,,-RA,0.06,VWS V14.00,2013-05-19 13:16:00,
2013-05-19 09:21:00,55.1,52.8,30.27,East,82,0.0,1.0,92,0.05,,-RA,0.07,VWS V14.00,2013-05-19 13:21:00,
2013-05-19 09:26:00,55.3,53.0,30.27,East,82,0.0,1.0,92,0.06,,-RA,0.08,VWS V14.00,2013-05-19 13:26:00,
2013-05-19 09:31:00,55.1,52.8,30.27,SSE,150,0.0,2.0,92,0.07,,-RA,0.09,VWS V14.00,2013-05-19 13:31:00,
2013-05-19 09:36:00,55.1,52.8,30.27,SSE,157,1.0,4.0,92,0.07,,-RA,0.09,VWS V14.00,2013-05-19 13:36:00,
2013-05-19 09:41:00,55.1,52.8,30.27,ESE,102,0.0,2.0,92,0.07,,-RA,0.09,VWS V14.00,2013-05-19 13:41:00,
2013-05-19 09:46:00,55.3,53.0,30.27,SSE,150,0.0,1.0,92,0.06,,-RA,0.09,VWS V14.00,2013-05-19 13:46:00,
2013-05-19 09:51:00,55.4,53.1,30.27,SSE,163,0.0,0.0,92,0.06,,-RA,0.09,VWS V14.00,2013-05-19 13:51:00,
2013-05-19 09:56:00,55.6,53.3,30.27,East,92,0.0,1.0,92,0.06,,-RA,0.09,VWS V14.00,2013-05-19 13:56:00,
2013-05-19 10:01:00,55.6,53.3,30.26,ESE,123,1.0,1.0,92,0.05,,-RA,0.09,VWS V14.00,2013-05-19 14:01:00,
2013-05-19 10:06:00,55.4,53.1,30.26,SSE,157,1.0,1.0,92,0.05,,OVC009,0.09,VWS V14.00,2013-05-19 14:06:00,
2013-05-19 10:11:00,55.6,53.6,30.26,SSW,194,0.0,0.0,93,0.05,,OVC009,0.09,VWS V14.00,2013-05-19 14:11:00,
2013-05-19 10:16:00,55.4,53.1,30.27,SSE,168,2.0,4.0,92,0.03,,OVC009,0.09,VWS V14.00,2013-05-19 14:16:00,
2013-05-19 10:21:00,55.6,53.6,30.27,SSE,168,3.0,3.0,93,0.03,,OVC009,0.09,VWS V14.00,2013-05-19 14:21:00,
2013-05-19 10:26:00,55.7,53.7,30.27,SSE,149,1.0,3.0,93,0.03,,OVC009,0.09,VWS V14.00,2013-05-19 14:26:00,
2013-05-19 10:31:00,55.7,53.7,30.27,East,101,0.0,3.0,93,0.00,,OVC009,0.09,VWS V14.00,2013-05-19 14:31:00,
2013-05-19 10:36:00,55.9,53.9,30.27,SE,140,0.0,2.0,93,0.00,,OVC009,0.09,VWS V14.00,2013-05-19 14:36:00,
2013-05-19 10:41:00,55.9,53.9,30.27,WSW,255,0.0,1.0,93,0.01,,OVC009,0.10,VWS V14.00,2013-05-19 14:41:00,
2013-05-19 10:46:00,55.9,53.9,30.27,ESE,114,2.0,2.0,93,0.01,,OVC009,0.10,VWS V14.00,2013-05-19 14:46:00,
2013-05-19 10:51:00,55.9,53.9,30.27,SSE,158,1.0,3.0,93,0.01,,-RA,0.10,VWS V14.00,2013-05-19 14:51:00,
2013-05-19 10:56:00,55.7,53.7,30.27,SE,141,1.0,1.0,93,0.01,,-RA,0.10,VWS V14.00,2013-05-19 14:56:00,
2013-05-19 11:01:00,55.9,53.9,30.27,SE,141,0.0,1.0,93,0.02,,-RA,0.11,VWS V14.00,2013-05-19 15:01:00,
2013-05-19 11:06:00,55.9,53.9,30.27,ESE,118,1.0,3.0,93,0.02,,-RA,0.11,VWS V14.00,2013-05-19 15:06:00,
2013-05-19 11:11:00,55.9,53.9,30.27,ESE,105,1.0,3.0,93,0.02,,-RA,0.11,VWS V14.00,2013-05-19 15:11:00,
2013-05-19 11:16:00,55.7,53.7,30.27,SE,140,3.0,3.0,93,0.02,,-RA,0.11,VWS V14.00,2013-05-19 15:16:00,
2013-05-19 11:21:00,55.7,53.7,30.27,SE,132,1.0,2.0,93,0.02,,-RA,0.11,VWS V14.00,2013-05-19 15:21:00,
2013-05-19 11:26:00,55.7,53.7,30.27,SSE,156,6.0,6.0,93,0.03,,-RA,0.12,VWS V14.00,2013-05-19 15:26:00,
2013-05-19 11:31:00,55.7,53.7,30.26,ESE,109,1.0,2.0,93,0.03,,-RA,0.12,VWS V14.00,2013-05-19 15:31:00,
2013-05-19 11:36:00,55.7,53.7,30.26,SSE,161,2.0,2.0,93,0.04,,-RA,0.13,VWS V14.00,2013-05-19 15:36:00,
2013-05-19 11:41:00,55.7,53.7,30.26,SE,146,1.0,3.0,93,0.04,,-RA,0.13,VWS V14.00,2013-05-19 15:41:00,
2013-05-19 11:46:00,55.7,53.7,30.25,East,101,0.0,1.0,93,0.03,,-RA,0.13,VWS V14.00,2013-05-19 15:46:00,
2013-05-19 11:51:00,55.7,53.7,30.25,ESE,103,0.0,2.0,93,0.03,,-RA,0.13,VWS V14.00,2013-05-19 15:51:00,
2013-05-19 11:56:00,55.9,53.9,30.25,East,90,0.0,1.0,93,0.04,,-RA,0.14,VWS V14.00,2013-05-19 15:56:00,
2013-05-19 12:01:00,55.9,54.2,30.25,SE,140,2.0,8.0,94,0.03,,-RA,0.14,VWS V14.00,2013-05-19 16:01:00,
2013-05-19 12:06:00,55.9,53.9,30.25,East,94,0.0,1.0,93,0.03,,-RA,0.14,VWS V14.00,2013-05-19 16:06:00,
2013-05-19 12:11:00,55.9,53.9,30.25,SSE,147,0.0,3.0,93,0.03,,-RA,0.14,VWS V14.00,2013-05-19 16:11:00,
2013-05-19 12:16:00,55.9,54.2,30.25,East,90,2.0,2.0,94,0.03,,-RA,0.14,VWS V14.00,2013-05-19 16:16:00,
2013-05-19 12:21:00,55.7,54.0,30.25,ESE,123,5.0,11.0,94,0.03,,-RA,0.14,VWS V14.00,2013-05-19 16:21:00,
2013-05-19 12:26:00,55.7,53.7,30.25,SSE,154,2.0,3.0,93,0.03,,-RA,0.14,VWS V14.00,2013-05-19 16:26:00,
2013-05-19 12:31:00,55.7,54.0,30.25,ESE,123,2.0,5.0,94,0.02,,-RA,0.14,VWS V14.00,2013-05-19 16:31:00,
2013-05-19 12:36:00,55.6,53.9,30.25,SE,146,6.0,6.0,94,0.02,,-RA,0.14,VWS V14.00,2013-05-19 16:36:00,
2013-05-19 12:41:00,55.6,53.9,30.25,SE,146,2.0,4.0,94,0.02,,-RA,0.14,VWS V14.00,2013-05-19 16:41:00,
2013-05-19 12:46:00,55.6,53.9,30.24,East,88,2.0,5.0,94,0.01,,-RA,0.14,VWS V14.00,2013-05-19 16:46:00,
2013-05-19 12:51:00,55.6,53.9,30.24,South,178,2.0,3.0,94,0.01,,-RA,0.14,VWS V14.00,2013-05-19 16:51:00,
2013-05-19 12:56:00,55.7,54.0,30.24,ENE,67,2.0,3.0,94,0.01,,-RA,0.14,VWS V14.00,2013-05-19 16:56:00,
2013-05-19 13:01:00,55.6,53.9,30.24,SSE,157,0.0,1.0,94,0.00,,-RA,0.14,VWS V14.00,2013-05-19 17:01:00,
2013-05-19 13:06:00,55.6,53.9,30.24,East,85,1.0,5.0,94,0.00,,-RA,0.14,VWS V14.00,2013-05-19 17:06:00,
2013-05-19 13:11:00,55.4,53.7,30.24,ESE,105,0.0,5.0,94,0.00,,-RA,0.14,VWS V14.00,2013-05-19 17:11:00,
2013-05-19 13:16:00,55.4,53.7,30.24,ENE,63,0.0,3.0,94,0.00,,-RA,0.14,VWS V14.00,2013-05-19 17:16:00,
2013-05-19 13:21:00,55.4,53.7,30.24,South,173,0.0,0.0,94,0.00,,-RA,0.14,VWS V14.00,2013-05-19 17:21:00,
2013-05-19 13:26:00,55.4,53.7,30.24,SSE,150,0.0,4.0,94,0.00,,-RA,0.14,VWS V14.00,2013-05-19 17:26:00,
2013-05-19 13:31:00,55.4,53.7,30.23,South,176,2.0,2.0,94,0.00,,-RA,0.14,VWS V14.00,2013-05-19 17:31:00,
2013-05-19 13:36:00,55.4,53.7,30.23,ESE,122,0.0,0.0,94,0.00,,-RA,0.14,VWS V14.00,2013-05-19 17:36:00,
2013-05-19 13:41:00,55.4,53.7,30.23,ESE,105,0.0,4.0,94,0.00,,-RA,0.14,VWS V14.00,2013-05-19 17:41:00,
2013-05-19 13:46:00,55.4,53.7,30.22,East,96,3.0,5.0,94,0.00,,-RA,0.14,VWS V14.00,2013-05-19 17:46:00,
2013-05-19 13:51:00,55.4,53.7,30.22,SSE,147,7.0,11.0,94,0.00,,-RA,0.14,VWS V14.00,2013-05-19 17:51:00,
2013-05-19 13:56:00,55.6,53.9,30.22,ESE,117,0.0,3.0,94,0.01,,-RA,0.15,VWS V14.00,2013-05-19 17:56:00,
2013-05-19 14:01:00,55.4,53.7,30.22,South,173,1.0,6.0,94,0.01,,-RA,0.15,VWS V14.00,2013-05-19 18:01:00,
2013-05-19 14:06:00,55.4,53.7,30.22,East,96,0.0,2.0,94,0.01,,-RA,0.15,VWS V14.00,2013-05-19 18:06:00,
2013-05-19 14:11:00,55.4,53.7,30.22,East,95,2.0,4.0,94,0.01,,-RA,0.15,VWS V14.00,2013-05-19 18:11:00,
2013-05-19 14:16:00,55.4,53.7,30.22,ENE,74,1.0,3.0,94,0.01,,-RA,0.15,VWS V14.00,2013-05-19 18:16:00,
2013-05-19 14:21:00,55.3,53.6,30.22,South,185,2.0,4.0,94,0.01,,-RA,0.15,VWS V14.00,2013-05-19 18:21:00,
2013-05-19 14:26:00,55.3,53.6,30.22,East,82,0.0,2.0,94,0.01,,-RA,0.15,VWS V14.00,2013-05-19 18:26:00,
2013-05-19 14:31:00,55.3,53.6,30.22,ESE,117,2.0,2.0,94,0.01,,-RA,0.15,VWS V14.00,2013-05-19 18:31:00,
2013-05-19 14:36:00,55.3,53.6,30.22,ESE,111,1.0,1.0,94,0.01,,-RA,0.15,VWS V14.00,2013-05-19 18:36:00,
2013-05-19 14:41:00,55.3,53.6,30.22,SE,126,0.0,2.0,94,0.01,,-RA,0.15,VWS V14.00,2013-05-19 18:41:00,
2013-05-19 14:46:00,55.3,53.6,30.22,NE,54,0.0,1.0,94,0.01,,-RA,0.15,VWS V14.00,2013-05-19 18:46:00,
2013-05-19 14:51:00,55.3,53.6,30.22,SE,136,0.0,1.0,94,0.02,,-RA,0.16,VWS V14.00,2013-05-19 18:51:00,
2013-05-19 14:56:00,55.3,53.6,30.22,SE,136,0.0,1.0,94,0.02,,-RA,0.16,VWS V14.00,2013-05-19 18:56:00,
2013-05-19 15:01:00,55.3,53.6,30.21,ESE,113,0.0,2.0,94,0.01,,-RA,0.16,VWS V14.00,2013-05-19 19:01:00,
2013-05-19 15:06:00,55.3,53.6,30.21,ENE,77,0.0,2.0,94,0.01,,,0.16,VWS V14.00,2013-05-19 19:06:00,
2013-05-19 15:11:00,55.3,53.6,30.21,SE,134,2.0,3.0,94,0.01,,,0.16,VWS V14.00,2013-05-19 19:11:00,
2013-05-19 15:16:00,55.4,53.7,30.20,North,349,0.0,0.0,94,0.01,,,0.16,VWS V14.00,2013-05-19 19:16:00,
2013-05-19 15:21:00,55.6,53.9,30.20,ESE,115,4.0,4.0,94,0.01,,,0.16,VWS V14.00,2013-05-19 19:21:00,
2013-05-19 15:26:00,55.7,54.0,30.20,SSE,164,2.0,3.0,94,0.01,,,0.16,VWS V14.00,2013-05-19 19:26:00,
2013-05-19 15:31:00,56.0,54.3,30.20,South,172,0.0,9.0,94,0.01,,,0.16,VWS V14.00,2013-05-19 19:31:00,
2013-05-19 15:36:00,55.9,54.2,30.20,ESE,115,2.0,5.0,94,0.01,,,0.16,VWS V14.00,2013-05-19 19:36:00,
2013-05-19 15:41:00,55.9,54.2,30.20,South,170,1.0,1.0,94,0.01,,,0.16,VWS V14.00,2013-05-19 19:41:00,
2013-05-19 15:46:00,55.9,54.2,30.20,ESE,102,0.0,1.0,94,0.01,,,0.16,VWS V14.00,2013-05-19 19:46:00,
2013-05-19 15:51:00,55.9,54.2,30.20,NE,37,2.0,3.0,94,0.01,,-RA,0.16,VWS V14.00,2013-05-19 19:51:00,
2013-05-19 15:56:00,56.0,54.3,30.20,ENE,62,0.0,3.0,94,0.01,,-RA,0.16,VWS V14.00,2013-05-19 19:56:00,
2013-05-19 16:01:00,56.0,54.3,30.19,ESE,117,1.0,6.0,94,0.00,,-RA,0.16,VWS V14.00,2013-05-19 20:01:00,
2013-05-19 16:06:00,55.9,54.2,30.19,SSE,153,0.0,4.0,94,0.00,,-RA,0.16,VWS V14.00,2013-05-19 20:06:00,
2013-05-19 16:11:00,55.9,54.2,30.19,ESE,109,0.0,2.0,94,0.00,,-RA,0.16,VWS V14.00,2013-05-19 20:11:00,
2013-05-19 16:16:00,56.2,54.5,30.18,ESE,115,0.0,2.0,94,0.00,,-RA,0.16,VWS V14.00,2013-05-19 20:16:00,
2013-05-19 16:21:00,56.2,54.5,30.18,SE,146,0.0,4.0,94,0.00,,-RA,0.16,VWS V14.00,2013-05-19 20:21:00,
2013-05-19 16:26:00,56.0,54.3,30.18,South,178,4.0,4.0,94,0.00,,-RA,0.16,VWS V14.00,2013-05-19 20:26:00,
2013-05-19 16:31:00,56.2,54.5,30.18,East,92,0.0,1.0,94,0.00,,-RA,0.16,VWS V14.00,2013-05-19 20:31:00,
2013-05-19 16:36:00,56.3,54.6,30.18,SE,138,0.0,0.0,94,0.00,,,0.16,VWS V14.00,2013-05-19 20:36:00,
2013-05-19 16:41:00,56.3,54.6,30.18,East,93,2.0,4.0,94,0.00,,,0.16,VWS V14.00,2013-05-19 20:41:00,
2013-05-19 16:46:00,56.2,54.5,30.19,East,98,0.0,0.0,94,0.00,,,0.16,VWS V14.00,2013-05-19 20:46:00,
2013-05-19 16:51:00,56.2,54.5,30.19,East,99,0.0,2.0,94,0.00,,,0.16,VWS V14.00,2013-05-19 20:51:00,
2013-05-19 16:56:00,56.0,54.3,30.19,NE,55,1.0,5.0,94,0.00,,,0.16,VWS V14.00,2013-05-19 20:56:00,
2013-05-19 17:01:00,56.0,54.3,30.18,ENE,65,0.0,1.0,94,0.00,,,0.16,VWS V14.00,2013-05-19 21:01:00,
2013-05-19 17:06:00,55.9,54.2,30.18,SSE,165,0.0,2.0,94,0.00,,,0.16,VWS V14.00,2013-05-19 21:06:00,
2013-05-19 17:11:00,56.0,54.3,30.18,East,84,0.0,1.0,94,0.00,,,0.16,VWS V14.00,2013-05-19 21:11:00,
2013-05-19 17:16:00,56.0,54.3,30.18,NE,54,1.0,2.0,94,0.00,,,0.16,VWS V14.00,2013-05-19 21:16:00,
2013-05-19 17:21:00,55.9,54.2,30.18,SSE,150,0.0,1.0,94,0.00,,,0.16,VWS V14.00,2013-05-19 21:21:00,
2013-05-19 17:26:00,56.0,54.3,30.18,SE,129,2.0,4.0,94,0.00,,,0.16,VWS V14.00,2013-05-19 21:26:00,
2013-05-19 17:31:00,56.0,54.3,30.17,SE,128,0.0,2.0,94,0.00,,,0.16,VWS V14.00,2013-05-19 21:31:00,
2013-05-19 17:36:00,56.0,54.3,30.17,SSE,168,0.0,3.0,94,0.01,,,0.17,VWS V14.00,2013-05-19 21:36:00,
2013-05-19 17:41:00,56.0,54.3,30.17,SE,136,2.0,2.0,94,0.01,,,0.17,VWS V14.00,2013-05-19 21:41:00,
2013-05-19 17:46:00,55.9,54.2,30.17,SE,136,2.0,4.0,94,0.01,,,0.17,VWS V14.00,2013-05-19 21:46:00,
2013-05-19 17:51:00,55.9,54.2,30.17,ESE,104,1.0,7.0,94,0.01,,,0.17,VWS V14.00,2013-05-19 21:51:00,
2013-05-19 17:56:00,55.9,54.2,30.17,South,181,1.0,1.0,94,0.01,,,0.17,VWS V14.00,2013-05-19 21:56:00,
2013-05-19 18:01:00,55.7,54.0,30.17,SE,136,0.0,2.0,94,0.01,,,0.17,VWS V14.00,2013-05-19 22:01:00,
2013-05-19 18:06:00,55.7,54.0,30.17,ESE,103,1.0,2.0,94,0.01,,,0.17,VWS V14.00,2013-05-19 22:06:00,
2013-05-19 18:11:00,55.9,54.2,30.17,SSE,159,1.0,3.0,94,0.01,,,0.17,VWS V14.00,2013-05-19 22:11:00,
2013-05-19 18:16:00,55.9,54.2,30.17,East,92,0.0,4.0,94,0.01,,,0.17,VWS V14.00,2013-05-19 22:16:00,
2013-05-19 18:21:00,55.7,54.0,30.17,ENE,78,1.0,2.0,94,0.01,,,0.17,VWS V14.00,2013-05-19 22:21:00,
2013-05-19 18:26:00,55.7,54.0,30.17,SE,128,0.0,3.0,94,0.01,,,0.17,VWS V14.00,2013-05-19 22:26:00,
2013-05-19 18:31:00,55.7,54.0,30.17,ESE,119,0.0,3.0,94,0.01,,-RA,0.17,VWS V14.00,2013-05-19 22:31:00,
2013-05-19 18:36:00,55.6,53.9,30.17,ESE,109,1.0,3.0,94,0.01,,-RA,0.17,VWS V14.00,2013-05-19 22:36:00,
2013-05-19 18:41:00,55.6,53.9,30.17,East,95,0.0,1.0,94,0.01,,-RA,0.17,VWS V14.00,2013-05-19 22:41:00,
2013-05-19 18:46:00,55.6,53.9,30.17,SSE,150,0.0,2.0,94,0.00,,-RA,0.17,VWS V14.00,2013-05-19 22:46:00,
2013-05-19 18:51:00,55.6,53.9,30.17,SSE,153,0.0,1.0,94,0.00,,-RA,0.17,VWS V14.00,2013-05-19 22:51:00,
2013-05-19 18:56:00,55.6,53.9,30.17,SSE,152,0.0,1.0,94,0.00,,-RA,0.17,VWS V14.00,2013-05-19 22:56:00,
2013-05-19 19:01:00,55.6,53.9,30.17,ENE,67,1.0,3.0,94,0.00,,-RA,0.17,VWS V14.00,2013-05-19 23:01:00,
2013-05-19 19:06:00,55.4,53.7,30.17,ESE,103,0.0,3.0,94,0.00,,-RA,0.17,VWS V14.00,2013-05-19 23:06:00,
2013-05-19 19:11:00,55.4,53.7,30.17,SSW,194,0.0,1.0,94,0.00,,-RA,0.17,VWS V14.00,2013-05-19 23:11:00,
2013-05-19 19:16:00,55.4,53.7,30.16,ENE,75,1.0,4.0,94,0.00,,-RA,0.17,VWS V14.00,2013-05-19 23:16:00,
2013-05-19 19:21:00,55.3,53.6,30.16,NE,53,1.0,4.0,94,0.00,,-RA,0.17,VWS V14.00,2013-05-19 23:21:00,
2013-05-19 19:26:00,55.3,53.6,30.16,SE,131,2.0,2.0,94,0.00,,-RA,0.17,VWS V14.00,2013-05-19 23:26:00,
2013-05-19 19:31:00,55.3,53.6,30.16,East,85,0.0,2.0,94,0.00,,,0.17,VWS V14.00,2013-05-19 23:31:00,
2013-05-19 19:36:00,55.1,53.4,30.16,South,170,5.0,5.0,94,0.00,,,0.17,VWS V14.00,2013-05-19 23:36:00,
2013-05-19 19:41:00,55.1,53.4,30.16,East,80,4.0,4.0,94,0.00,,,0.17,VWS V14.00,2013-05-19 23:41:00,
2013-05-19 19:46:00,55.1,53.4,30.16,East,85,3.0,4.0,94,0.00,,,0.17,VWS V14.00,2013-05-19 23:46:00,
2013-05-19 19:51:00,55.1,53.4,30.16,SSE,161,0.0,1.0,94,0.00,,,0.17,VWS V14.00,2013-05-19 23:51:00,
2013-05-19 19:56:00,55.1,53.4,30.16,South,188,0.0,1.0,94,0.00,,,0.17,VWS V14.00,2013-05-19 23:56:00,
2013-05-19 20:02:00,55.1,53.4,30.16,ENE,78,2.0,2.0,94,0.00,,,0.17,VWS V14.00,2013-05-20 00:02:00,
2013-05-19 20:06:00,55.1,53.4,30.16,ENE,77,1.0,1.0,94,0.00,,,0.17,VWS V14.00,2013-05-20 00:06:00,
2013-05-19 20:11:00,55.1,53.7,30.16,ESE,121,1.0,2.0,95,0.00,,,0.17,VWS V14.00,2013-05-20 00:11:00,
2013-05-19 20:16:00,55.1,53.4,30.16,East,94,1.0,1.0,94,0.00,,,0.17,VWS V14.00,2013-05-20 00:16:00,
2013-05-19 20:21:00,55.1,53.7,30.16,ENE,74,0.0,0.0,95,0.00,,,0.17,VWS V14.00,2013-05-20 00:21:00,
2013-05-19 20:26:00,55.1,53.7,30.16,ENE,76,0.0,1.0,95,0.00,,,0.17,VWS V14.00,2013-05-20 00:26:00,
2013-05-19 20:32:00,55.1,53.7,30.16,ESE,121,0.0,0.0,95,0.00,,,0.17,VWS V14.00,2013-05-20 00:32:00,
2013-05-19 20:37:00,55.1,53.7,30.16,East,93,0.0,3.0,95,0.00,,,0.17,VWS V14.00,2013-05-20 00:37:00,
2013-05-19 20:42:00,55.1,53.7,30.16,East,90,0.0,0.0,95,0.00,,,0.17,VWS V14.00,2013-05-20 00:42:00,
2013-05-19 20:47:00,55.1,53.7,30.16,East,99,0.0,1.0,95,0.00,,,0.17,VWS V14.00,2013-05-20 00:47:00,
2013-05-19 20:52:00,55.1,53.7,30.16,ESE,121,3.0,4.0,95,0.00,,,0.17,VWS V14.00,2013-05-20 00:52:00,
2013-05-19 20:57:00,55.1,53.7,30.16,East,86,0.0,2.0,95,0.00,,,0.17,VWS V14.00,2013-05-20 00:57:00,
2013-05-19 21:02:00,55.0,53.6,30.16,SSE,161,0.0,1.0,95,0.01,,,0.18,VWS V14.00,2013-05-20 01:02:00,
2013-05-19 21:07:00,55.0,53.6,30.16,ENE,69,0.0,3.0,95,0.01,,,0.18,VWS V14.00,2013-05-20 01:07:00,
2013-05-19 21:12:00,55.0,53.6,30.16,South,182,0.0,1.0,95,0.01,,,0.18,VWS V14.00,2013-05-20 01:12:00,
2013-05-19 21:17:00,55.0,53.6,30.15,East,99,0.0,2.0,95,0.01,,,0.18,VWS V14.00,2013-05-20 01:17:00,
2013-05-19 21:22:00,55.0,53.6,30.15,SSE,159,0.0,0.0,95,0.01,,,0.18,VWS V14.00,2013-05-20 01:22:00,
2013-05-19 21:27:00,55.0,53.6,30.15,ENE,63,4.0,4.0,95,0.01,,,0.18,VWS V14.00,2013-05-20 01:27:00,
2013-05-19 21:32:00,55.0,53.6,30.15,East,79,2.0,2.0,95,0.01,,,0.18,VWS V14.00,2013-05-20 01:32:00,
2013-05-19 21:37:00,55.0,53.6,30.15,East,94,0.0,2.0,95,0.01,,,0.18,VWS V14.00,2013-05-20 01:37:00,
2013-05-19 21:42:00,55.0,53.6,30.15,SE,132,0.0,4.0,95,0.01,,,0.18,VWS V14.00,2013-05-20 01:42:00,
2013-05-19 21:47:00,55.1,53.7,30.15,ESE,115,0.0,0.0,95,0.01,,,0.18,VWS V14.00,2013-05-20 01:47:00,
2013-05-19 21:52:00,55.1,53.7,30.15,ESE,121,2.0,3.0,95,0.01,,,0.18,VWS V14.00,2013-05-20 01:52:00,
2013-05-19 21:57:00,55.1,53.7,30.15,East,99,0.0,1.0,95,0.01,,,0.18,VWS V14.00,2013-05-20 01:57:00,
2013-05-19 22:02:00,55.0,53.6,30.14,ESE,119,0.0,3.0,95,0.00,,,0.18,VWS V14.00,2013-05-20 02:02:00,
2013-05-19 22:07:00,55.0,53.6,30.14,ESE,103,1.0,1.0,95,0.00,,,0.18,VWS V14.00,2013-05-20 02:07:00,
2013-05-19 22:12:00,55.0,53.6,30.14,East,98,0.0,1.0,95,0.00,,,0.18,VWS V14.00,2013-05-20 02:12:00,
2013-05-19 22:17:00,55.1,53.7,30.14,South,173,3.0,3.0,95,0.00,,,0.18,VWS V14.00,2013-05-20 02:17:00,
2013-05-19 22:22:00,55.1,53.7,30.14,South,173,0.0,1.0,95,0.00,,,0.18,VWS V14.00,2013-05-20 02:22:00,
2013-05-19 22:27:00,55.1,53.7,30.14,East,88,0.0,1.0,95,0.00,,,0.18,VWS V14.00,2013-05-20 02:27:00,
2013-05-19 22:32:00,55.1,53.7,30.14,ESE,107,0.0,3.0,95,0.00,,,0.18,VWS V14.00,2013-05-20 02:32:00,
2013-05-19 22:37:00,55.1,53.7,30.14,South,169,0.0,3.0,95,0.00,,,0.18,VWS V14.00,2013-05-20 02:37:00,
2013-05-19 22:42:00,55.1,53.7,30.14,SE,126,0.0,1.0,95,0.00,,,0.18,VWS V14.00,2013-05-20 02:42:00,
2013-05-19 22:47:00,55.1,53.7,30.14,East,94,4.0,4.0,95,0.00,,,0.18,VWS V14.00,2013-05-20 02:47:00,
2013-05-19 22:52:00,55.1,53.7,30.14,NE,51,1.0,1.0,95,0.00,,,0.18,VWS V14.00,2013-05-20 02:52:00,
2013-05-19 22:57:00,55.1,53.7,30.14,NE,51,0.0,0.0,95,0.00,,,0.18,VWS V14.00,2013-05-20 02:57:00,
2013-05-19 23:02:00,55.1,53.7,30.13,SSE,167,0.0,1.0,95,0.00,,,0.18,VWS V14.00,2013-05-20 03:02:00,
2013-05-19 23:07:00,55.1,53.7,30.13,SSE,165,0.0,1.0,95,0.00,,,0.18,VWS V14.00,2013-05-20 03:07:00,
2013-05-19 23:12:00,55.1,53.7,30.13,ENE,61,0.0,7.0,95,0.00,,,0.18,VWS V14.00,2013-05-20 03:12:00,
2013-05-19 23:17:00,55.1,53.7,30.13,SSE,153,0.0,1.0,95,0.00,,,0.18,VWS V14.00,2013-05-20 03:17:00,
2013-05-19 23:22:00,55.1,53.7,30.13,ESE,113,0.0,2.0,95,0.00,,,0.18,VWS V14.00,2013-05-20 03:22:00,
2013-05-19 23:27:00,55.1,53.7,30.13,ESE,123,0.0,1.0,95,0.00,,,0.18,VWS V14.00,2013-05-20 03:27:00,
2013-05-19 23:32:00,55.1,53.7,30.12,ESE,122,3.0,4.0,95,0.00,,,0.18,VWS V14.00,2013-05-20 03:32:00,
2013-05-19 23:37:00,55.1,53.7,30.12,SE,138,1.0,4.0,95,0.00,,,0.18,VWS V14.00,2013-05-20 03:37:00,
2013-05-19 23:42:00,55.1,53.7,30.12,SE,127,0.0,0.0,95,0.00,,,0.18,VWS V14.00,2013-05-20 03:42:00,
2013-05-19 23:47:00,55.1,53.7,30.11,East,90,0.0,1.0,95,0.00,,,0.18,VWS V14.00,2013-05-20 03:47:00,
2013-05-19 23:52:00,55.1,53.7,30.11,East,90,0.0,0.0,95,0.00,,,0.18,VWS V14.00,2013-05-20 03:52:00,
2013-05-19 23:57:00,55.1,53.7,30.11,East,84,0.0,1.0,95,0.00,,,0.18,VWS V14.00,2013-05-20 03:57:00,